QPF
0.04 0.03 0.03 0.04 0.03 0.04 0.04 0.03 0.04 0.06 0.08 0.11 0.13 0.15 0.17 0.17 0.17 0.17 0.15 0.13 0.11 0.10 0.10 0.08 0.05 0.04 0.04 0.04 0.03 0.02 0.01 0.01 0.00 0.00 0.00 0.00 0.00 0.00 0.00 0.00 0.00 0.00 0.01
0.07 0.05 0.04 0.04 0.03 0.03 0.04 0.03 0.04 0.04 0.05 0.07 0.10 0.12 0.12 0.12 0.13 0.15 0.15 0.14 0.11 0.09 0.08 0.08 0.06 0.05 0.04 0.03 0.02 0.02 0.01 0.01 0.00 0.00 0.00 0.00 0.00 0.00 0.00 0.00 0.00 0.00 0.01
0.05 0.04 0.04 0.03 0.04 0.04 0.03 0.03 0.03 0.04 0.05 0.05 0.06 0.07 0.09 0.11 0.12 0.12 0.12 0.12 0.10 0.09 0.08 0.07 0.06 0.04 0.03 0.02 0.02 0.02 0.01 0.01 0.00 0.00 0.00 0.00 0.00 0.00 0.00 0.00 0.00 0.00 0.01
0.04 0.04 0.04 0.03 0.03 0.04 0.04 0.04 0.04 0.05 0.05 0.06 0.07 0.07 0.06 0.07 0.08 0.09 0.09 0.10 0.10 0.09 0.08 0.06 0.05 0.03 0.02 0.01 0.01 0.01 0.01 0.01 0.01 0.00 0.00 0.00 0.00 0.00 0.00 0.00 0.00 0.00 0.01
0.03 0.03 0.02 0.03 0.02 0.02 0.02 0.03 0.03 0.04 0.04 0.04 0.06 0.06 0.07 0.07 0.06 0.08 0.09 0.11 0.10 0.09 0.09 0.07 0.05 0.03 0.02 0.01 0.01 0.00 0.00 0.00 0.00 0.00 0.00 0.00 0.00 0.00 0.00 0.00 0.00 0.00 0.01
0.01 0.01 0.01 0.01 0.01 0.01 0.01 0.01 0.01 0.01 0.02 0.03 0.03 0.03 0.05 0.06 0.05 0.06 0.08 0.08 0.09 0.09 0.09 0.08 0.06 0.03 0.01 0.01 0.01 0.00 0.00 0.00 0.00 0.00 0.00 0.00 0.00 0.00 0.00 0.00 0.00 0.01 0.01
0.00 0.00 0.00 0.00 0.00 0.00 0.01 0.01 0.01 0.01 0.01 0.01 0.01 0.01 0.02 0.03 0.04 0.04 0.05 0.05 0.07 0.07 0.09 0.09 0.07 0.05 0.03 0.02 0.01 0.01 0.00 0.00 0.00 0.00 0.00 0.00 0.00 0.00 0.00 0.00 0.00 0.01 0.01
0.00 0.00 0.00 0.00 0.00 0.00 0.00 0.00 0.00 0.00 0.00 0.01 0.01 0.01 0.01 0.02 0.03 0.03 0.03 0.04 0.05 0.06 0.06 0.06 0.06 0.05 0.04 0.03 0.02 0.02 0.01 0.00 0.00 0.00 0.00 0.00 0.00 0.00 0.00 0.00 0.00 0.01 0.01
0.00 0.00 0.00 0.00 0.00 0.00 0.00 0.00 0.00 0.00 0.00 0.00 0.00 0.00 0.00 0.01 0.02 0.02 0.02 0.03 0.03 0.04 0.05 0.05 0.05 0.04 0.04 0.04 0.02 0.02 0.02 0.01 0.01 0.01 0.00 0.00 0.00 0.00 0.00 0.00 0.00 0.00 0.00
0.00 0.00 0.00 0.00 0.00 0.00 0.00 0.00 0.00 0.00 0.00 0.00 0.00 0.00 0.00 0.00 0.01 0.02 0.02 0.02 0.03 0.03 0.04 0.05 0.05 0.04 0.03 0.03 0.02 0.03 0.02 0.01 0.01 0.01 0.01 0.01 0.00 0.00 0.00 0.00 0.00 0.00 0.00
0.00 0.00 0.00 0.00 0.00 0.00 0.00 0.00 0.00 0.00 0.00 0.00 0.00 0.00 0.00 0.00 0.00 0.01 0.02 0.02 0.02 0.03 0.04 0.04 0.03 0.03 0.03 0.02 0.03 0.02 0.03 0.03 0.02 0.01 0.01 0.00 0.00 0.00 0.00 0.00 0.00 0.00 0.00
0.00 0.00 0.00 0.00 0.00 0.00 0.00 0.00 0.00 0.00 0.00 0.00 0.00 0.00 0.00 0.00 0.00 0.01 0.02 0.02 0.02 0.02 0.03 0.03 0.02 0.03 0.03 0.02 0.03 0.04 0.05 0.05 0.02 0.02 0.01 0.01 0.00 0.00 0.00 0.00 0.00 0.01 0.00
0.00 0.00 0.00 0.00 0.00 0.00 0.00 0.00 0.00 0.00 0.00 0.00 0.00 0.00 0.00 0.00 0.00 0.00 0.01 0.01 0.02 0.02 0.02 0.02 0.02 0.02 0.02 0.02 0.03 0.04 0.04 0.03 0.03 0.02 0.01 0.01 0.01 0.01 0.00 0.00 0.01 0.01 0.00
0.00 0.00 0.00 0.00 0.00 0.00 0.00 0.00 0.00 0.00 0.00 0.00 0.01 0.01 0.00 0.00 0.00 0.00 0.01 0.01 0.01 0.01 0.01 0.01 0.01 0.02 0.02 0.02 0.03 0.03 0.02 0.03 0.03 0.02 0.01 0.01 0.00 0.01 0.01 0.00 0.01 0.01 0.01
0.00 0.00 0.00 0.00 0.00 0.00 0.00 0.00 0.00 0.00 0.00 0.00 0.01 0.01 0.00 0.01 0.01 0.01 0.01 0.01 0.01 0.02 0.01 0.01 0.01 0.01 0.01 0.01 0.01 0.01 0.01 0.01 0.01 0.01 0.00 0.01 0.01 0.00 0.00 0.00 0.01 0.01 0.00
0.00 0.00 0.00 0.00 0.00 0.00 0.00 0.00 0.00 0.00 0.00 0.00 0.00 0.00 0.00 0.00 0.00 0.01 0.01 0.01 0.01 0.01 0.01 0.01 0.01 0.01 0.01 0.01 0.01 0.01 0.01 0.01 0.00 0.00 0.00 0.00 0.00 0.00 0.00 0.00 0.00 0.01 0.00
0.00 0.00 0.00 0.00 0.00 0.00 0.00 0.00 0.00 0.00 0.00 0.00 0.00 0.00 0.00 0.00 0.00 0.00 0.00 0.00 0.00 0.01 0.01 0.01 0.01 0.00 0.00 0.00 0.00 0.00 0.00 0.00 0.00 0.00 0.00 0.00 0.00 0.00 0.00 0.00 0.00 0.00 0.00
0.00 0.00 0.00 0.00 0.00 0.00 0.00 0.00 0.00 0.00 0.00 0.00 0.00 0.00 0.00 0.00 0.00 0.00 0.00 0.00 0.00 0.00 0.00 0.00 0.00 0.00 0.00 0.00 0.00 0.00 0.00 0.00 0.00 0.00 0.00 0.00 0.00 0.00 0.00 0.00 0.00 0.00 0.00
0.00 0.00 0.00 0.00 0.00 0.00 0.00 0.00 0.00 0.00 0.00 0.00 0.00 0.00 0.00 0.00 0.00 0.00 0.00 0.00 0.00 0.00 0.00 0.00 0.00 0.00 0.00 0.00 0.00 0.00 0.00 0.00 0.00 0.00 0.00 0.00 0.00 0.00 0.00 0.00 0.00 0.00 0.00
0.00 0.00 0.00 0.00 0.00 0.00 0.00 0.00 0.00 0.00 0.00 0.00 0.00 0.00 0.00 0.00 0.00 0.00 0.00 0.00 0.00 0.00 0.00 0.00 0.00 0.00 0.00 0.00 0.00 0.00 0.00 0.00 0.00 0.00 0.00 0.00 0.00 0.00 0.00 0.00 0.00 0.00 0.00
0.00 0.00 0.00 0.00 0.00 0.00 0.00 0.00 0.00 0.00 0.00 0.00 0.00 0.00 0.00 0.00 0.00 0.00 0.00 0.00 0.00 0.00 0.00 0.00 0.00 0.00 0.00 0.00 0.00 0.00 0.00 0.00 0.00 0.00 0.00 0.00 0.00 0.00 0.00 0.00 0.00 0.00 0.00
0.00 0.00 0.00 0.00 0.00 0.00 0.00 0.00 0.00 0.00 0.00 0.00 0.00 0.00 0.00 0.00 0.00 0.00 0.00 0.00 0.00 0.00 0.00 0.00 0.00 0.00 0.00 0.00 0.00 0.00 0.00 0.00 0.00 0.00 0.00 0.00 0.00 0.00 0.00 0.00 0.00 0.00 0.00
0.00 0.00 0.00 0.00 0.00 0.00 0.00 0.00 0.00 0.00 0.00 0.00 0.00 0.00 0.00 0.00 0.00 0.00 0.00 0.00 0.00 0.00 0.00 0.00 0.00 0.00 0.00 0.00 0.00 0.00 0.00 0.00 0.00 0.00 0.00 0.00 0.00 0.00 0.00 0.00 0.00 0.00 0.00
0.00 0.00 0.00 0.00 0.00 0.00 0.00 0.00 0.00 0.00 0.00 0.00 0.00 0.00 0.00 0.00 0.00 0.00 0.00 0.00 0.00 0.00 0.00 0.00 0.00 0.00 0.00 0.00 0.00 0.00 0.00 0.00 0.00 0.00 0.00 0.00 0.00 0.00 0.00 0.00 0.00 0.00 0.00
0.00 0.00 0.00 0.00 0.00 0.00 0.00 0.00 0.00 0.00 0.00 0.00 0.00 0.00 0.00 0.00 0.00 0.00 0.00 0.00 0.00 0.00 0.00 0.00 0.00 0.00 0.00 0.00 0.00 0.00 0.00 0.00 0.00 0.00 0.00 0.00 0.00 0.00 0.00 0.00 0.00 0.00 0.00
0.00 0.00 0.00 0.00 0.00 0.00 0.00 0.00 0.00 0.00 0.00 0.00 0.00 0.00 0.00 0.00 0.00 0.00 0.00 0.00 0.00 0.00 0.00 0.00 0.00 0.00 0.00 0.00 0.00 0.00 0.00 0.00 0.00 0.00 0.00 0.00 0.00 0.00 0.00 0.00 0.00 0.00 0.00
MSLP
1014.28 1014.00 1013.76 1013.56 1013.37 1013.19 1013.03 1012.88 1012.76 1012.68 1012.63 1012.63 1012.66 1012.72 1012.80 1012.91 1013.04 1013.20 1013.39 1013.60 1013.85 1014.12 1014.39 1014.66 1014.92 1015.16 1015.37 1015.57 1015.76 1015.95 1016.15 1016.35 1016.55 1016.74 1016.89 1017.00 1017.04 1017.04 1016.99 1016.93 1016.89 1016.89 1016.95
1014.86 1014.56 1014.31 1014.10 1013.93 1013.77 1013.64 1013.52 1013.41 1013.33 1013.26 1013.21 1013.17 1013.15 1013.14 1013.15 1013.20 1013.28 1013.41 1013.58 1013.78 1014.01 1014.26 1014.50 1014.74 1014.96 1015.16 1015.36 1015.57 1015.80 1016.04 1016.30 1016.56 1016.81 1017.02 1017.17 1017.24 1017.25 1017.20 1017.13 1017.05 1017.01 1017.04
1015.61 1015.30 1015.03 1014.81 1014.62 1014.46 1014.33 1014.21 1014.11 1014.01 1013.91 1013.81 1013.71 1013.60 1013.51 1013.44 1013.40 1013.41 1013.48 1013.59 1013.76 1013.96 1014.19 1014.42 1014.65 1014.86 1015.08 1015.29 1015.52 1015.78 1016.06 1016.36 1016.67 1016.96 1017.20 1017.38 1017.48 1017.51 1017.47 1017.39 1017.30 1017.25 1017.24
1016.46 1016.14 1015.86 1015.61 1015.40 1015.22 1015.07 1014.94 1014.82 1014.70 1014.57 1014.42 1014.26 1014.09 1013.92 1013.77 1013.65 1013.59 1013.59 1013.66 1013.79 1013.96 1014.18 1014.40 1014.63 1014.86 1015.09 1015.32 1015.57 1015.85 1016.15 1016.47 1016.80 1017.11 1017.37 1017.57 1017.69 1017.73 1017.71 1017.65 1017.57 1017.52 1017.51
1017.31 1017.00 1016.72 1016.45 1016.21 1016.00 1015.83 1015.67 1015.52 1015.37 1015.21 1015.03 1014.82 1014.59 1014.36 1014.13 1013.95 1013.82 1013.76 1013.77 1013.86 1014.01 1014.21 1014.44 1014.68 1014.92 1015.16 1015.41 1015.68 1015.96 1016.26 1016.58 1016.91 1017.21 1017.48 1017.68 1017.82 1017.88 1017.88 1017.85 1017.81 1017.78 1017.78
1018.09 1017.81 1017.53 1017.25 1016.99 1016.76 1016.56 1016.37 1016.20 1016.03 1015.85 1015.63 1015.39 1015.11 1014.82 1014.54 1014.29 1014.09 1013.97 1013.93 1013.98 1014.10 1014.28 1014.51 1014.75 1015.00 1015.26 1015.52 1015.79 1016.07 1016.36 1016.66 1016.96 1017.24 1017.49 1017.69 1017.84 1017.93 1017.96 1017.97 1017.97 1017.99 1018.03
1018.75 1018.51 1018.25 1017.98 1017.71 1017.46 1017.24 1017.04 1016.85 1016.66 1016.45 1016.22 1015.94 1015.63 1015.30 1014.97 1014.66 1014.40 1014.22 1014.13 1014.14 1014.23 1014.39 1014.61 1014.85 1015.11 1015.37 1015.63 1015.89 1016.15 1016.42 1016.69 1016.96 1017.21 1017.44 1017.64 1017.79 1017.90 1017.98 1018.04 1018.09 1018.16 1018.24
1019.26 1019.08 1018.86 1018.61 1018.35 1018.10 1017.86 1017.65 1017.45 1017.25 1017.03 1016.78 1016.48 1016.15 1015.78 1015.40 1015.05 1014.74 1014.51 1014.37 1014.34 1014.40 1014.54 1014.74 1014.98 1015.24 1015.50 1015.76 1016.00 1016.24 1016.48 1016.71 1016.95 1017.17 1017.39 1017.58 1017.75 1017.89 1018.00 1018.11 1018.21 1018.32 1018.45
1019.66 1019.54 1019.36 1019.15 1018.91 1018.67 1018.44 1018.22 1018.01 1017.80 1017.57 1017.31 1017.00 1016.64 1016.24 1015.83 1015.44 1015.09 1014.82 1014.65 1014.58 1014.61 1014.73 1014.92 1015.15 1015.41 1015.66 1015.91 1016.14 1016.36 1016.58 1016.78 1016.99 1017.20 1017.40 1017.60 1017.79 1017.96 1018.11 1018.26 1018.40 1018.54 1018.69
1019.97 1019.92 1019.80 1019.63 1019.42 1019.20 1018.98 1018.76 1018.55 1018.33 1018.09 1017.81 1017.48 1017.10 1016.68 1016.25 1015.83 1015.46 1015.16 1014.96 1014.87 1014.88 1014.99 1015.16 1015.39 1015.64 1015.89 1016.13 1016.36 1016.56 1016.76 1016.96 1017.15 1017.36 1017.56 1017.77 1017.98 1018.18 1018.37 1018.55 1018.71 1018.87 1019.02
1020.24 1020.25 1020.19 1020.07 1019.90 1019.71 1019.50 1019.29 1019.08 1018.85 1018.59 1018.29 1017.94 1017.54 1017.11 1016.66 1016.23 1015.85 1015.54 1015.32 1015.22 1015.23 1015.32 1015.50 1015.72 1015.96 1016.21 1016.45 1016.66 1016.87 1017.06 1017.25 1017.45 1017.66 1017.89 1018.12 1018.36 1018.59 1018.80 1019.00 1019.17 1019.32 1019.46
1020.50 1020.56 1020.56 1020.48 1020.36 1020.20 1020.02 1019.81 1019.60 1019.35 1019.08 1018.76 1018.40 1017.99 1017.54 1017.09 1016.66 1016.28 1015.97 1015.76 1015.66 1015.67 1015.77 1015.94 1016.16 1016.40 1016.64 1016.87 1017.08 1017.28 1017.48 1017.68 1017.89 1018.12 1018.37 1018.63 1018.89 1019.15 1019.38 1019.58 1019.75 1019.88 1019.99
1020.74 1020.85 1020.89 1020.87 1020.79 1020.66 1020.51 1020.32 1020.11 1019.86 1019.58 1019.25 1018.87 1018.45 1018.01 1017.57 1017.15 1016.78 1016.49 1016.30 1016.21 1016.23 1016.33 1016.50 1016.71 1016.94 1017.17 1017.40 1017.60 1017.80 1018.00 1018.21 1018.44 1018.69 1018.96 1019.24 1019.53 1019.80 1020.04 1020.24 1020.39 1020.50 1020.57
1020.94 1021.08 1021.16 1021.19 1021.16 1021.08 1020.96 1020.80 1020.60 1020.36 1020.08 1019.75 1019.37 1018.96 1018.54 1018.11 1017.72 1017.38 1017.12 1016.95 1016.88 1016.91 1017.01 1017.17 1017.38 1017.59 1017.81 1018.01 1018.21 1018.40 1018.60 1018.81 1019.04 1019.31 1019.59 1019.89 1020.19 1020.47 1020.72 1020.91 1021.04 1021.13 1021.16
1021.06 1021.22 1021.34 1021.41 1021.43 1021.40 1021.33 1021.21 1021.04 1020.83 1020.57 1020.26 1019.90 1019.52 1019.12 1018.74 1018.38 1018.08 1017.86 1017.72 1017.67 1017.70 1017.81 1017.96 1018.14 1018.33 1018.52 1018.70 1018.87 1019.04 1019.23 1019.43 1019.66 1019.93 1020.22 1020.52 1020.82 1021.10 1021.34 1021.52 1021.64 1021.70 1021.72
1021.06 1021.23 1021.37 1021.48 1021.56 1021.59 1021.57 1021.51 1021.40 1021.24 1021.02 1020.75 1020.44 1020.11 1019.76 1019.42 1019.12 1018.87 1018.69 1018.58 1018.55 1018.59 1018.68 1018.82 1018.97 1019.13 1019.28 1019.43 1019.57 1019.71 1019.87 1020.05 1020.27 1020.52 1020.80 1021.09 1021.39 1021.65 1021.88 1022.05 1022.16 1022.21 1022.21
1020.92 1021.09 1021.25 1021.41 1021.53 1021.63 1021.68 1021.69 1021.65 1021.55 1021.40 1021.20 1020.95 1020.68 1020.40 1020.13 1019.89 1019.70 1019.56 1019.48 1019.47 1019.51 1019.60 1019.71 1019.83 1019.95 1020.06 1020.17 1020.27 1020.38 1020.51 1020.66 1020.85 1021.08 1021.34 1021.61 1021.88 1022.12 1022.33 1022.49 1022.59 1022.64 1022.64
1020.66 1020.82 1021.00 1021.19 1021.36 1021.52 1021.64 1021.72 1021.75 1021.74 1021.67 1021.55 1021.39 1021.20 1021.00 1020.81 1020.64 1020.50 1020.41 1020.37 1020.37 1020.42 1020.49 1020.57 1020.66 1020.75 1020.82 1020.89 1020.95 1021.03 1021.13 1021.25 1021.41 1021.60 1021.83 1022.07 1022.31 1022.53 1022.72 1022.87 1022.96 1023.01 1023.02
1020.33 1020.48 1020.67 1020.87 1021.08 1021.28 1021.46 1021.61 1021.72 1021.78 1021.80 1021.77 1021.70 1021.60 1021.49 1021.38 1021.28 1021.21 1021.17 1021.16 1021.19 1021.23 1021.29 1021.36 1021.42 1021.47 1021.52 1021.55 1021.59 1021.64 1021.71 1021.80 1021.93 1022.10 1022.29 1022.49 1022.70 1022.89 1023.06 1023.19 1023.29 1023.34 1023.37
1019.99 1020.12 1020.30 1020.51 1020.73 1020.96 1021.19 1021.39 1021.56 1021.69 1021.78 1021.84 1021.85 1021.85 1021.82 1021.80 1021.78 1021.77 1021.78 1021.80 1021.85 1021.90 1021.96 1022.01 1022.05 1022.08 1022.11 1022.12 1022.14 1022.17 1022.22 1022.30 1022.41 1022.54 1022.70 1022.87 1023.05 1023.22 1023.36 1023.48 1023.57 1023.64 1023.68
1019.70 1019.81 1019.97 1020.16 1020.38 1020.62 1020.85 1021.08 1021.29 1021.47 1021.62 1021.74 1021.84 1021.91 1021.96 1022.02 1022.07 1022.12 1022.18 1022.24 1022.31 1022.38 1022.44 1022.48 1022.52 1022.54 1022.55 1022.56 1022.57 1022.59 1022.63 1022.70 1022.79 1022.91 1023.04 1023.19 1023.34 1023.48 1023.61 1023.72 1023.82 1023.89 1023.95
1019.50 1019.58 1019.71 1019.87 1020.06 1020.27 1020.50 1020.72 1020.94 1021.14 1021.32 1021.49 1021.64 1021.78 1021.90 1022.02 1022.14 1022.25 1022.36 1022.46 1022.56 1022.64 1022.70 1022.75 1022.78 1022.80 1022.81 1022.82 1022.83 1022.86 1022.90 1022.96 1023.05 1023.16 1023.28 1023.41 1023.54 1023.67 1023.78 1023.89 1023.99 1024.07 1024.15
1019.39 1019.44 1019.52 1019.64 1019.78 1019.95 1020.14 1020.33 1020.53 1020.72 1020.92 1021.10 1021.29 1021.47 1021.64 1021.82 1021.99 1022.15 1022.31 1022.44 1022.57 1022.67 1022.75 1022.80 1022.84 1022.87 1022.88 1022.90 1022.92 1022.95 1023.00 1023.07 1023.15 1023.26 1023.37 1023.49 1023.62 1023.74 1023.85 1023.96 1024.06 1024.16 1024.26
1019.33 1019.34 1019.39 1019.45 1019.54 1019.65 1019.77 1019.92 1020.07 1020.24 1020.41 1020.60 1020.80 1021.01 1021.22 1021.44 1021.65 1021.86 1022.05 1022.22 1022.37 1022.50 1022.60 1022.67 1022.72 1022.75 1022.78 1022.80 1022.83 1022.87 1022.93 1023.01 1023.11 1023.21 1023.33 1023.45 1023.57 1023.69 1023.81 1023.92 1024.04 1024.15 1024.27
1019.24 1019.24 1019.24 1019.26 1019.29 1019.33 1019.39 1019.47 1019.57 1019.69 1019.84 1020.01 1020.21 1020.42 1020.66 1020.90 1021.15 1021.39 1021.62 1021.83 1022.01 1022.16 1022.28 1022.37 1022.43 1022.48 1022.52 1022.56 1022.60 1022.66 1022.73 1022.82 1022.93 1023.05 1023.17 1023.30 1023.44 1023.56 1023.69 1023.81 1023.94 1024.07 1024.20
1019.06 1019.05 1019.02 1019.00 1018.98 1018.97 1018.97 1018.99 1019.03 1019.10 1019.21 1019.36 1019.54 1019.75 1019.99 1020.25 1020.52 1020.79 1021.05 1021.29 1021.50 1021.68 1021.82 1021.94 1022.03 1022.09 1022.16 1022.21 1022.28 1022.35 1022.44 1022.55 1022.68 1022.81 1022.95 1023.10 1023.24 1023.38 1023.52 1023.66 1023.79 1023.93 1024.08
Thickness
5646 5650 5655 5659 5664 5667 5670 5673 5676 5679 5681 5682 5682 5683 5683 5683 5682 5682 5680 5680 5679 5678 5678 5678 5677 5678 5677 5677 5676 5675 5674 5673 5671 5674 5676 5679 5682 5684 5685 5686 5685 5685 5684
5641 5644 5648 5652 5655 5658 5661 5663 5666 5667 5669 5670 5671 5671 5671 5671 5671 5672 5672 5672 5671 5670 5670 5671 5670 5670 5669 5669 5668 5668 5667 5667 5666 5666 5668 5671 5674 5676 5678 5679 5679 5679 5679
5637 5640 5643 5645 5648 5650 5652 5654 5657 5658 5659 5660 5661 5661 5661 5661 5662 5663 5663 5664 5663 5663 5664 5664 5664 5663 5662 5662 5662 5661 5661 5662 5662 5661 5662 5664 5667 5669 5670 5671 5672 5672 5673
5633 5636 5637 5639 5641 5643 5645 5647 5648 5649 5649 5650 5650 5650 5651 5652 5653 5654 5655 5656 5656 5657 5658 5658 5658 5658 5657 5657 5657 5657 5657 5656 5656 5656 5656 5658 5660 5662 5663 5663 5664 5665 5665
5630 5631 5633 5635 5636 5638 5638 5639 5639 5640 5640 5640 5641 5641 5643 5644 5646 5647 5648 5649 5650 5650 5651 5652 5653 5654 5655 5654 5654 5653 5652 5651 5651 5651 5651 5652 5653 5655 5655 5656 5657 5657 5657
5628 5628 5629 5631 5631 5632 5632 5632 5632 5632 5632 5632 5632 5632 5634 5636 5638 5640 5642 5642 5644 5644 5645 5646 5648 5650 5650 5651 5651 5650 5650 5649 5647 5647 5646 5647 5648 5649 5650 5651 5651 5651 5649
5627 5627 5627 5627 5627 5627 5627 5627 5626 5624 5624 5623 5623 5624 5625 5628 5632 5633 5635 5635 5636 5637 5638 5640 5642 5644 5645 5645 5645 5646 5646 5646 5647 5645 5644 5644 5644 5645 5645 5645 5645 5644 5643
5627 5626 5626 5625 5624 5623 5623 5621 5620 5619 5618 5617 5616 5616 5618 5620 5624 5625 5627 5627 5628 5629 5631 5633 5634 5636 5638 5639 5639 5638 5638 5639 5641 5641 5641 5640 5641 5641 5642 5641 5640 5638 5636
5627 5626 5624 5623 5622 5621 5619 5617 5615 5614 5612 5610 5609 5609 5610 5611 5615 5617 5618 5618 5619 5620 5623 5625 5627 5628 5632 5633 5633 5632 5632 5633 5635 5636 5636 5636 5637 5637 5637 5636 5634 5633 5630
5628 5626 5624 5622 5620 5618 5616 5614 5611 5609 5607 5605 5603 5602 5602 5603 5606 5609 5610 5610 5611 5611 5613 5617 5620 5622 5625 5627 5627 5627 5626 5626 5628 5628 5629 5629 5630 5631 5631 5631 5630 5628 5625
5631 5629 5626 5623 5620 5617 5614 5611 5608 5605 5603 5600 5598 5596 5596 5597 5599 5601 5603 5603 5603 5604 5605 5608 5612 5616 5619 5621 5622 5623 5623 5623 5622 5622 5622 5622 5623 5624 5624 5624 5625 5624 5622
5634 5630 5626 5623 5621 5617 5613 5610 5606 5603 5600 5597 5594 5593 5592 5592 5593 5594 5596 5597 5598 5598 5599 5602 5605 5610 5613 5615 5617 5618 5619 5618 5617 5616 5616 5616 5616 5616 5616 5617 5617 5617 5617
5635 5631 5627 5623 5619 5616 5612 5609 5605 5602 5598 5594 5592 5589 5588 5588 5589 5590 5591 5592 5593 5594 5596 5599 5601 5604 5607 5609 5611 5612 5613 5612 5612 5611 5611 5610 5610 5611 5612 5612 5612 5612 5611
5637 5632 5628 5624 5619 5616 5612 5608 5605 5601 5597 5594 5591 5588 5587 5587 5587 5588 5589 5590 5591 5592 5593 5595 5597 5599 5602 5603 5605 5606 5606 5607 5608 5607 5606 5605 5606 5607 5607 5608 5607 5607 5606
5639 5635 5630 5625 5620 5616 5613 5609 5605 5601 5598 5594 5592 5589 5588 5588 5587 5588 5589 5589 5590 5591 5592 5593 5594 5596 5597 5598 5599 5600 5601 5602 5603 5602 5602 5602 5602 5603 5602 5603 5603 5602 5600
5642 5637 5632 5627 5623 5619 5615 5611 5608 5605 5602 5599 5597 5595 5592 5591 5590 5590 5591 5591 5591 5592 5592 5591 5591 5591 5592 5593 5595 5596 5597 5598 5599 5599 5600 5599 5599 5599 5598 5599 5598 5597 5595
5646 5641 5636 5632 5627 5622 5618 5614 5611 5609 5606 5603 5601 5599 5597 5596 5594 5593 5593 5592 5592 5593 5592 5590 5589 5589 5590 5591 5592 5594 5594 5595 5596 5597 5597 5597 5597 5596 5596 5595 5595 5594 5592
5650 5646 5641 5636 5632 5627 5623 5618 5614 5611 5608 5605 5603 5602 5600 5599 5598 5597 5596 5596 5593 5592 5590 5589 5588 5588 5589 5590 5591 5591 5592 5593 5594 5595 5595 5595 5595 5595 5594 5592 5592 5591 5589
5653 5649 5645 5641 5636 5632 5628 5623 5619 5616 5612 5608 5606 5605 5603 5602 5601 5599 5598 5596 5593 5591 5590 5589 5589 5589 5589 5590 5590 5591 5592 5592 5593 5594 5594 5593 5593 5593 5592 5590 5590 5590 5588
5656 5653 5649 5645 5641 5637 5632 5628 5624 5620 5616 5613 5610 5608 5606 5605 5602 5600 5598 5596 5595 5593 5592 5592 5591 5592 5592 5592 5592 5592 5592 5592 5593 5593 5593 5593 5593 5592 5591 5590 5589 5588 5586
5658 5655 5654 5649 5645 5641 5637 5633 5629 5625 5622 5618 5615 5613 5612 5608 5605 5603 5601 5600 5598 5597 5596 5595 5595 5595 5595 5594 5594 5594 5594 5594 5594 5594 5594 5594 5593 5592 5591 5590 5589 5587 5586
5659 5657 5654 5652 5649 5646 5642 5639 5635 5631 5628 5624 5621 5619 5617 5613 5611 5608 5606 5605 5603 5602 5601 5600 5599 5599 5598 5598 5598 5597 5597 5596 5596 5596 5596 5595 5594 5593 5591 5590 5588 5587 5586
5660 5658 5656 5654 5652 5650 5647 5644 5640 5637 5634 5630 5627 5624 5621 5618 5616 5614 5612 5610 5609 5607 5606 5605 5604 5603 5602 5602 5602 5601 5600 5600 5599 5599 5598 5597 5595 5594 5592 5590 5589 5587 5585
5660 5659 5657 5656 5654 5652 5650 5648 5645 5642 5639 5636 5633 5630 5627 5625 5622 5620 5618 5616 5614 5613 5611 5610 5609 5608 5607 5606 5606 5605 5604 5604 5603 5602 5601 5599 5597 5595 5592 5590 5588 5586 5583
5660 5659 5658 5657 5656 5654 5653 5651 5649 5647 5644 5642 5639 5637 5634 5631 5629 5626 5624 5622 5620 5618 5616 5615 5614 5613 5611 5610 5610 5609 5608 5607 5606 5604 5603 5601 5598 5595 5592 5590 5587 5585 5581
5660 5659 5658 5657 5657 5656 5655 5654 5652 5651 5649 5647 5645 5643 5640 5637 5635 5632 5629 5627 5624 5623 5621 5619 5618 5617 5615 5614 5613 5611 5610 5609 5607 5606 5604 5601 5598 5595 5592 5589 5587 5583 5580